Regional Weather Roundup
Issued by NWS Austin/San Antonio, TX

Home | Current Version | Previous Version | Text Only | Print | Product List | Glossary On
Versions: 1 2 3 4 5 6 7 8 9 10 11 12 13 14 15 16 17 18 19 20 21 22 23 24 25 26 27 28 29 30 31 32 33 34 35 36 37 38 39 40 41 42 43 44 45 46 47 48 49 50
170
ASUS44 KEWX 160001
RWREWX
SOUTH TEXAS REGIONAL WEATHER ROUNDUP
NATIONAL WEATHER SERVICE AUSTIN/SAN ANTONIO TX
600 PM CST MON JAN 15 2018

NOTE: "FAIR" INDICATED FEW OR NO CLOUDS BELOW 12,000 FEET WITH NO
SIGNIFICANT WEATHER AND/OR OBSTRUCTIONS TO VISIBILITY.

* - THESE STATIONS ARE NOT NWS OR FAA STATIONS...AND ARE NOT SUBJECT
    TO NWS AND FAA QUALITY CONTROL.

TXZ171-172-183>190-160100-
TEXAS HILL COUNTRY AND EDWARDS PLATEAU

CITY           SKY/WX    TMP DP  RH WIND       PRES   REMARKS
JUNCTION       CLOUDY    63  45  51 SE5       30.19R
6HR MIN TEMP:  61; 6HR MAX TEMP:  66;

*LLANO         MOCLDY    64  45  48 S5        30.24R
BURNET         CLOUDY    62  46  55 CALM      30.24R
6HR MIN TEMP:  58; 6HR MAX TEMP:  65;

*HORSESHOE BAY MOCLDY    62  47  58 CALM      30.21S
6HR MIN TEMP:  61; 6HR MAX TEMP:  68;

*KERRVILLE     CLEAR     59  44  56 SE5       30.20R
6HR MIN TEMP:  56; 6HR MAX TEMP:  64;

*FREDERICKSBRG PTCLDY    58  45  60 CALM      30.21R
6HR MIN TEMP:  57; 6HR MAX TEMP:  64;

*ROCKSPRINGS     N/A     57  46  67 CALM      30.24R
*BOERNE STAGE  PTCLDY    61  45  55 S3        30.20S
*CASTROVILLE   PTCLDY    66  44  45 SE7       30.19S
HONDO          CLEAR     65  46  50 SE6       30.17R
6HR MIN TEMP:  62; 6HR MAX TEMP:  73;

*UVALDE        CLEAR     63  47  55 SE5       30.17R
6HR MIN TEMP:  61; 6HR MAX TEMP:  69;

DEL RIO        CLEAR     66  48  52 SE7       30.13R
6HR MIN TEMP:  59; 6HR MAX TEMP:  68;

LAUGHLIN AFB   NOT AVBL
CARRIZO SPRGS  CLEAR     66  46  48 S5        30.13R
*EAGLE PASS    CLEAR     66  46  48 SE7       30.14R
*FAITH RANCH   CLEAR     68  48  49 SE7       30.13R
$$

TXZ173-191>194-202-209-217>225-228-160100-
CENTRAL AND SOUTH CENTRAL TEXAS

CITY           SKY/WX    TMP DP  RH WIND       PRES   REMARKS
GEORGETOWN     CLOUDY    63  49  60 CALM      30.23
6HR MIN TEMP:  57; 6HR MAX TEMP:  66;

AUSTIN/BERGSTM CLOUDY    64  52  64 SE12      30.20S
6HR MIN TEMP:  64; 6HR MAX TEMP:  70;

AUSTIN/MABRY   CLOUDY    65  49  56 SE7       30.22R
6HR MIN TEMP:  62; 6HR MAX TEMP:  71;

*AUSTIN/EXEC   CLOUDY    64  48  55 CALM      30.22S
*LAGO VISTA    CLOUDY    62  50  64 CALM      30.21F
6HR MIN TEMP:  61; 6HR MAX TEMP:  66;

SAN MARCOS     MOCLDY    63  51  65 SE14      30.22R
6HR MIN TEMP:  63; 6HR MAX TEMP:  70;

NEW BRAUNFELS  CLOUDY    64  50  60 SE13      30.19R
6HR MIN TEMP:  64; 6HR MAX TEMP:  71;

RANDOLPH AFB   MOCLDY    62  46  57 SE5       30.19R
6HR MIN TEMP:  62; 6HR MAX TEMP:  70;

PT SAN ANTONIO CLEAR     62  45  54 SE7       30.16S
6HR MIN TEMP:  61; 6HR MAX TEMP:  71;

SAN ANTONIO    PTCLDY    63  44  50 SE7       30.18S
6HR MIN TEMP:  61; 6HR MAX TEMP:  70;

STINSON FIELD  PTCLDY    67  46  47 SE5       30.16S
6HR MIN TEMP:  64; 6HR MAX TEMP:  74;

*LA GRANGE     CLOUDY    63  53  68 S9        30.22S
6HR MIN TEMP:  63; 6HR MAX TEMP:  70;

*GIDDINGS      CLOUDY   N/A N/A N/A S6        30.24R
*GONZALES      CLOUDY    63  53  70 SE10      30.22R
6HR MIN TEMP:  63; 6HR MAX TEMP:  72;

$$

TXZ163>164-176>182-195>201-210>213-226-227-235-160100-
SOUTHEAST TEXAS

CITY           SKY/WX    TMP DP  RH WIND       PRES   REMARKS
COLLEGE STN    CLOUDY    62  49  62 SE7       30.25R
6HR MIN TEMP:  62; 6HR MAX TEMP:  69;

*BRYAN         CLOUDY    60  48  64 E3        30.26S
6HR MIN TEMP:  60; 6HR MAX TEMP:  67;

*CALDWELL      CLOUDY    62  49  61 SE7       30.24S
6HR MIN TEMP:  62; 6HR MAX TEMP:  69;

*CROCKETT        N/A     57  46  67 CALM      30.29F
*BRENHAM       CLOUDY    64  50  61 SE10      30.26R
6HR MIN TEMP:  64; 6HR MAX TEMP:  70;

HUNTSVILLE     CLOUDY    61  45  55 CALM      30.26R
6HR MIN TEMP:  61; 6HR MAX TEMP:  65;

CONROE         CLOUDY    59  46  62 SE7       30.27R
6HR MIN TEMP:  59; 6HR MAX TEMP:  67;

HOUSTON BUSH   CLOUDY    59  47  64 SE16      30.28R
6HR MIN TEMP:  59; 6HR MAX TEMP:  67;

HOUSTON HOBBY  MOCLDY    57  48  72 E8        30.28R
6HR MIN TEMP:  57; 6HR MAX TEMP:  67;

*HOUSTON SW AP CLOUDY    58  48  69 SE6       30.28S
6HR MIN TEMP:  58; 6HR MAX TEMP:  67;

PEARLAND       CLOUDY    59  48  67 E9        30.30R
6HR MIN TEMP:  59; 6HR MAX TEMP:  65;

HOUSTON HOOKS  CLOUDY    59  48  67 SE7       30.28R
6HR MIN TEMP:  59; 6HR MAX TEMP:  68; 6HR PCP: TRACE;

ELLINGTON FLD  NOT AVBL
SUGAR LAND     CLOUDY    61  49  64 SE12      30.27R
6HR MIN TEMP:  61; 6HR MAX TEMP:  69;

*HOUSTON EXEC  CLOUDY    61  50  67 SE10      30.27S
*CLEVELAND MUN MOCLDY    58  39  48 SE3       30.29R
6HR MIN TEMP:  58; 6HR MAX TEMP:  67;

*WHARTON       CLOUDY    60  49  67 E5        30.27R
6HR MIN TEMP:  60; 6HR MAX TEMP:  70;

*COLUMBUS      CLOUDY    60  51  72 S5        30.26S
6HR MIN TEMP:  60; 6HR MAX TEMP:  70;

*EAGLE LAKE    CLOUDY    61  52  71 S8        30.25S
6HR MIN TEMP:  61; 6HR MAX TEMP:  71;

$$

TXZ214>216-236>238-160100-
THE UPPER TEXAS COAST

CITY           SKY/WX    TMP DP  RH WIND       PRES   REMARKS
*ORANGE        FAIR      54  46  75 SE6       30.34S
6HR MIN TEMP:  54; 6HR MAX TEMP:  62;

PORT ARTHUR    FAIR      51  43  74 E7        30.32S
6HR MIN TEMP:  51; 6HR MAX TEMP:  64;

GALVESTON      MOCLDY    58  51  78 E13       30.29R
6HR MIN TEMP:  57; 6HR MAX TEMP:  65;

ANGLETON       CLOUDY    60  49  66 E7        30.27S
6HR MIN TEMP:  60; 6HR MAX TEMP:  67;

*BAY CITY      CLOUDY    62  53  73 E8        30.25S
PALACIOS       CLOUDY    62  54  74 E3        30.24S
6HR MIN TEMP:  62; 6HR MAX TEMP:  69;

$$

TXZ229>234-239>247-160100-
TEXAS COASTAL BEND AND RIO GRANDE PLAINS

CITY           SKY/WX    TMP DP  RH WIND       PRES   REMARKS
VICTORIA       CLOUDY    61  53  75 E8        30.23R
6HR MIN TEMP:  61; 6HR MAX TEMP:  67;

*BEEVILLE      CLOUDY    66  53  63 SE8       30.19R
6HR MIN TEMP:  66; 6HR MAX TEMP:  73;

ROCKPORT       CLOUDY    60  54  80 SE9       30.21R
6HR MIN TEMP:  60; 6HR MAX TEMP:  67;

*PORT ARANSAS  NOT AVBL
*PORT LAVACA   PTCLDY    58  54  85 E7        30.23S
6HR MIN TEMP:  58; 6HR MAX TEMP:  67; 6HR PCP:  0.01;

*INGLESIDE     CLOUDY    65  56  74 SE7       30.20R
CORPUS CHRISTI MOCLDY    66  54  65 SE15      30.19S
6HR MIN TEMP:  66; 6HR MAX TEMP:  74;

CORPUS NAS     MOCLDY    65  57  75 S9        30.20S
6HR MIN TEMP:  65; 6HR MAX TEMP:  74;

*ROBSTOWN      NOT AVBL
ALICE          MOCLDY    66  50  56 SE12      30.17R
6HR MIN TEMP:  66; 6HR MAX TEMP:  76;

KINGSVILLE NAS PTCLDY    66  53  63 SE17      30.18R
6HR MIN TEMP:  66; 6HR MAX TEMP:  75;

COTULLA        PTCLDY    68  46  45 SE7       30.15R
6HR MIN TEMP:  65; 6HR MAX TEMP:  73;

LAREDO         CLEAR     70  50  49 SE10      30.13R
6HR MIN TEMP:  68; 6HR MAX TEMP:  75;

$$

TXZ248>255-160100-
DEEP SOUTH TEXAS

CITY           SKY/WX    TMP DP  RH WIND       PRES   REMARKS
BROWNSVILLE    FAIR      69  56  62 SE15      30.19S
6HR MIN TEMP:  69; 6HR MAX TEMP:  76;

PORT ISABEL    FAIR      67  55  65 SE13      30.18S
6HR MIN TEMP:  67; 6HR MAX TEMP:  73;

*SOUTH PADRE   NOT AVBL
HARLINGEN      PTCLDY    67  53  61 SE17      30.17R
6HR MIN T



USA.gov is the U.S. government's official web portal to all federal, state and local government web resources and services.